When you browse on this site, cookies collect data to enhance your experience and personalize the content and advertising you see.
Visit our Privacy Policy to learn more. By continuing to use the site, you agree to this use of cookies and data.
  • In Hungary
  • List of Countries
  • For 7 days
  • Water Temperature
  • Satellite Maps
  • Weather Map
  • News
  • Weather Widgets
  • user-avatar
    Login

    Hourly Weather Maykobulak

    Today, 22 January, Tuesday

    Time Temperature Precipitation Wind Pressure Humidity
    00:00 -18°C° 0 mm 7 mps 746 mmHg 83%
    01:00 -18°C° 0 mm 7 mps 745 mmHg 81%
    02:00 -17°C° 0 mm 8 mps 745 mmHg 79%
    03:00 -16°C° 0 mm 8 mps 744 mmHg 78%
    04:00 -15°C° 0 mm 9 mps 743 mmHg 74%
    05:00 -15°C° 0.3 mm 9 mps 743 mmHg 80%
    06:00 -14°C° 0.3 mm 9 mps 742 mmHg 85%
    07:00 -14°C° 0.3 mm 9 mps 742 mmHg 91%
    08:00 -11°C° 0.6 mm 9 mps 741 mmHg 91%
    09:00 -10°C° 0.6 mm 9 mps 741 mmHg 92%
    10:00 -9°C° 0.6 mm 9 mps 741 mmHg 93%
    11:00 -8°C° 0.8 mm 9 mps 740 mmHg 93%
    12:00 -6°C° 0.8 mm 9 mps 740 mmHg 93%
    13:00 -6°C° 0.8 mm 9 mps 740 mmHg 93%
    14:00 -5°C° 0.8 mm 9 mps 740 mmHg 93%
    15:00 -5°C° 0.8 mm 8 mps 740 mmHg 93%
    16:00 -4°C° 0.8 mm 8 mps 740 mmHg 93%
    17:00 -7°C° 0.3 mm 7 mps 740 mmHg 92%
    18:00 -9°C° 0.3 mm 6 mps 741 mmHg 92%
    19:00 -10°C° 0.3 mm 4 mps 741 mmHg 91%
    20:00 -14°C° 0 mm 4 mps 742 mmHg 92%
    21:00 -15°C° 0 mm 3 mps 742 mmHg 94%
    22:00 -18°C° 0 mm 3 mps 743 mmHg 95%
    23:00 -18°C° 0 mm 2 mps 743 mmHg 96%

    Tomorrow, 23 January, Wednesday

    Time Temperature Precipitation Wind Pressure Humidity
    00:00 -19°C° 0 mm 2 mps 743 mmHg 97%
    01:00 -20°C° 0 mm 2 mps 743 mmHg 98%
    02:00 -20°C° 0 mm 2 mps 744 mmHg 98%
    03:00 -20°C° 0 mm 2 mps 744 mmHg 98%
    04:00 -19°C° 0 mm 1 mps 745 mmHg 99%
    05:00 -21°C° 0 mm 2 mps 745 mmHg 99%
    06:00 -21°C° 0 mm 2 mps 745 mmHg 99%
    07:00 -21°C° 0 mm 2 mps 745 mmHg 99%
    08:00 -21°C° 0 mm 2 mps 746 mmHg 99%
    09:00 -21°C° 0 mm 2 mps 746 mmHg 98%
    10:00 -19°C° 0 mm 1 mps 747 mmHg 98%
    11:00 -20°C° 0 mm 2 mps 747 mmHg 97%
    12:00 -20°C° 0 mm 2 mps 747 mmHg 96%
    13:00 -19°C° 0 mm 2 mps 748 mmHg 96%
    14:00 -20°C° 0 mm 2 mps 748 mmHg 96%
    15:00 -21°C° 0 mm 2 mps 748 mmHg 97%
    16:00 -21°C° 0 mm 2 mps 749 mmHg 98%
    17:00 -23°C° 0 mm 2 mps 749 mmHg 98%
    18:00 -24°C° 0 mm 2 mps 750 mmHg 99%
    19:00 -25°C° 0 mm 2 mps 750 mmHg 99%
    20:00 -25°C° 0 mm 2 mps 750 mmHg 99%
    21:00 -26°C° 0 mm 2 mps 751 mmHg 99%
    22:00 -23°C° 0 mm 1 mps 751 mmHg 99%
    23:00 -23°C° 0 mm 1 mps 751 mmHg 99%

    Day after tomorrow, 24 January, Thursday

    Time Temperature Precipitation Wind Pressure Humidity
    00:00 -24°C° 0 mm 1 mps 752 mmHg 99%
    01:00 -24°C° 0 mm 1 mps 752 mmHg 99%
    02:00 -24°C° 0 mm 1 mps 753 mmHg 99%
    03:00 -24°C° 0 mm 1 mps 753 mmHg 98%
    04:00 -25°C° 0 mm 1 mps 754 mmHg 98%
    05:00 -25°C° 0 mm 1 mps 754 mmHg 97%
    06:00 -25°C° 0 mm 1 mps 754 mmHg 96%
    07:00 -25°C° 0 mm 1 mps 755 mmHg 95%
    08:00 -24°C° 0 mm 1 mps 755 mmHg 94%
    09:00 -23°C° 0 mm 1 mps 755 mmHg 92%
    10:00 -22°C° 0 mm 1 mps 756 mmHg 90%
    11:00 -21°C° 0 mm 1 mps 756 mmHg 89%
    12:00 -21°C° 0 mm 2 mps 756 mmHg 89%
    13:00 -20°C° 0 mm 2 mps 756 mmHg 88%
    14:00 -20°C° 0 mm 2 mps 755 mmHg 87%
    15:00 -22°C° 0 mm 3 mps 755 mmHg 86%
    16:00 -22°C° 0 mm 3 mps 755 mmHg 85%
    17:00 -21°C° 0 mm 3 mps 755 mmHg 83%
    18:00 -20°C° 0 mm 4 mps 755 mmHg 82%
    19:00 -20°C° 0 mm 5 mps 755 mmHg 81%
    20:00 -19°C° 0 mm 5 mps 754 mmHg 80%
    21:00 -19°C° 0 mm 5 mps 754 mmHg 79%
    22:00 -18°C° 0 mm 6 mps 754 mmHg 78%
    23:00 -18°C° 0 mm 6 mps 753 mmHg 77%

    25 January, Friday

    Time Temperature Precipitation Wind Pressure Humidity
    00:00 -17°C° 0 mm 6 mps 753 mmHg 76%
    01:00 -17°C° 0 mm 6 mps 753 mmHg 75%
    02:00 -17°C° 0 mm 6 mps 752 mmHg 75%
    03:00 -17°C° 0 mm 6 mps 752 mmHg 75%
    04:00 -17°C° 0 mm 6 mps 751 mmHg 75%
    05:00 -17°C° 0 mm 6 mps 751 mmHg 76%
    06:00 -18°C° 0 mm 7 mps 751 mmHg 76%
    07:00 -18°C° 0 mm 7 mps 750 mmHg 76%
    08:00 -18°C° 0.1 mm 7 mps 750 mmHg 79%
    09:00 -18°C° 0.1 mm 7 mps 750 mmHg 81%
    10:00 -17°C° 0.1 mm 6 mps 750 mmHg 84%
    11:00 -16°C° 0.1 mm 6 mps 750 mmHg 85%
    12:00 -16°C° 0.1 mm 6 mps 750 mmHg 87%
    13:00 -14°C° 0.1 mm 5 mps 750 mmHg 89%
    14:00 -14°C° 0.1 mm 5 mps 749 mmHg 90%
    15:00 -14°C° 0.1 mm 4 mps 749 mmHg 92%
    16:00 -14°C° 0.1 mm 4 mps 749 mmHg 93%
    17:00 -12°C° 0.1 mm 4 mps 749 mmHg 94%
    18:00 -12°C° 0.1 mm 3 mps 749 mmHg 94%
    19:00 -12°C° 0.1 mm 3 mps 749 mmHg 94%
    20:00 -13°C° 0 mm 3 mps 749 mmHg 94%
    21:00 -13°C° 0 mm 3 mps 749 mmHg 94%
    22:00 -13°C° 0 mm 2 mps 749 mmHg 94%
    23:00 -13°C° 0 mm 2 mps 749 mmHg 94%

    26 January, Saturday

    Time Temperature Precipitation Wind Pressure Humidity
    00:00 -13°C° 0 mm 2 mps 748 mmHg 93%
    01:00 -13°C° 0 mm 2 mps 748 mmHg 93%
    02:00 -13°C° 0 mm 2 mps 748 mmHg 93%
    03:00 -13°C° 0 mm 2 mps 748 mmHg 94%
    04:00 -13°C° 0 mm 2 mps 747 mmHg 94%
    05:00 -13°C° 0 mm 2 mps 747 mmHg 94%
    06:00 -12°C° 0 mm 2 mps 747 mmHg 94%
    07:00 -12°C° 0 mm 2 mps 747 mmHg 94%
    08:00 -13°C° 0 mm 3 mps 747 mmHg 93%
    09:00 -12°C° 0 mm 3 mps 747 mmHg 93%
    10:00 -12°C° 0 mm 3 mps 747 mmHg 92%
    11:00 -9°C° 0 mm 3 mps 746 mmHg 91%
    12:00 -9°C° 0 mm 4 mps 746 mmHg 91%
    13:00 -8°C° 0 mm 4 mps 746 mmHg 90%
    14:00 -8°C° 0 mm 4 mps 745 mmHg 90%
    15:00 -7°C° 0 mm 3 mps 745 mmHg 90%
    16:00 -7°C° 0 mm 3 mps 745 mmHg 91%
    17:00 -8°C° 0 mm 3 mps 744 mmHg 91%
    18:00 -8°C° 0 mm 3 mps 744 mmHg 91%
    19:00 -8°C° 0 mm 3 mps 744 mmHg 91%
    20:00 -8°C° 0 mm 3 mps 744 mmHg 90%
    21:00 -8°C° 0 mm 3 mps 743 mmHg 90%
    22:00 -8°C° 0 mm 3 mps 743 mmHg 89%
    23:00 -8°C° 0 mm 3 mps 743 mmHg 89%

    27 January, Sunday

    Time Temperature Precipitation Wind Pressure Humidity
    00:00 -7°C° 0 mm 3 mps 743 mmHg 89%
    01:00 -6°C° 0 mm 3 mps 742 mmHg 88%
    02:00 -6°C° 0 mm 3 mps 742 mmHg 88%
    03:00 -7°C° 0 mm 4 mps 741 mmHg 88%
    04:00 -5°C° 0 mm 4 mps 741 mmHg 88%
    05:00 -7°C° 0 mm 4 mps 741 mmHg 88%
    06:00 -7°C° 0 mm 4 mps 740 mmHg 89%
    07:00 -7°C° 0 mm 4 mps 740 mmHg 89%
    08:00 -7°C° 0 mm 4 mps 739 mmHg 89%
    09:00 -8°C° 0 mm 4 mps 739 mmHg 90%
    10:00 -8°C° 0 mm 4 mps 739 mmHg 90%
    11:00 -6°C° 0 mm 3 mps 739 mmHg 91%
    12:00 -6°C° 0 mm 3 mps 738 mmHg 92%
    13:00 -5°C° 0 mm 3 mps 738 mmHg 92%
    14:00 -4°C° 0 mm 2 mps 738 mmHg 93%
    15:00 -3°C° 0 mm 2 mps 738 mmHg 94%
    16:00 -3°C° 0 mm 2 mps 737 mmHg 95%
    17:00 -3°C° 0 mm 2 mps 737 mmHg 95%
    18:00 -2°C° 0 mm 1 mps 737 mmHg 95%
    19:00 -2°C° 0 mm 1 mps 737 mmHg 96%
    20:00 -2°C° 0 mm 1 mps 737 mmHg 96%
    21:00 -2°C° 0 mm 1 mps 737 mmHg 96%
    22:00 -2°C° 0 mm 1 mps 737 mmHg 96%
    23:00 -3°C° 0 mm 2 mps 737 mmHg 96%
    Show more